GW2924 Weather Reports


Display with metric or nautical units.
time (UTC)temp
F
wind
direction
speed
MPH
gust
MPH
rain 1hr
in
rain 24hr
in
rain mn
in
humidity
%
barometer
mb
20260502152055 53 288 1.0 8.0 0.00 0.00 0.00 47 1018.8
20260502151631 53 285 3.0 9.0 0.00 0.00 0.00 42 1018.9
20260502151052 52 287 4.0 9.0 0.00 0.00 0.00 46 1019.0
20260502150554 53 294 2.0 8.0 0.00 0.00 0.00 45 1019.0
20260502150103 52 306 4.0 8.0 0.00 0.00 0.00 45 1019.0
20260502130553 44 224 3.0 8.0 0.00 0.00 0.00 62 1019.2
20260502123556 41 260 3.0 7.0 0.00 0.00 0.00 68 1019.2
20260502123104 40 266 3.0 5.0 0.00 0.00 0.00 67 1019.1
20260502122552 40 256 2.0 4.0 0.00 0.00 0.00 68 1019.1
20260502122052 39 254 2.0 3.0 0.00 0.00 0.00 69 1019.1
20260502121555 39 243 2.0 4.0 0.00 0.00 0.00 69 1019.1
20260502121051 38 250 2.0 4.0 0.00 0.00 0.00 69 1019.1
20260502120551 38 260 2.0 4.0 0.00 0.00 0.00 69 1019.1
20260502115554 37 251 2.0 4.0 0.00 0.00 0.00 71 1019.0
20260502115053 36 252 2.0 4.0 0.00 0.00 0.00 72 1018.9
20260502114600 36 259 2.0 4.0 0.00 0.00 0.00 74 1018.8
20260502114053 35 250 2.0 4.0 0.00 0.00 0.00 75 1018.7
20260502113554 35 255 2.0 4.0 0.00 0.00 0.00 75 1018.7
20260502113059 34 250 2.0 3.0 0.00 0.00 0.00 75 1018.7
20260502112552 34 250 2.0 3.0 0.00 0.00 0.00 76 1018.7
20260502112052 33 243 2.0 3.0 0.00 0.00 0.00 77 1018.8
20260502111600 33 256 2.0 3.0 0.00 0.00 0.00 75 1018.7
20260502111055 33 259 2.0 3.0 0.00 0.00 0.00 77 1018.8
20260502110552 33 243 2.0 3.0 0.00 0.00 0.00 76 1018.8
20260502110059 33 258 2.0 3.0 0.00 0.00 0.00 75 1018.8
20260502105552 33 252 2.0 3.0 0.00 0.00 0.00 76 1018.8
20260502105055 33 248 2.0 3.0 0.00 0.00 0.00 76 1018.6
20260502104601 33 243 2.0 3.0 0.00 0.00 0.00 76 1018.7
20260502104056 33 242 2.0 3.0 0.00 0.00 0.00 76 1018.7
20260502103552 33 243 2.0 3.0 0.00 0.00 0.00 77 1018.7
20260502103106 32 247 2.0 3.0 0.00 0.00 0.00 77 1018.7
20260502102555 33 255 2.0 3.0 0.00 0.00 0.00 76 1018.6
20260502102055 33 252 2.0 3.0 0.00 0.00 0.00 75 1018.6
20260502101611 32 265 1.0 2.0 0.00 0.00 0.00 76 1018.7
20260502101052 32 257 1.0 2.0 0.00 0.00 0.00 78 1018.7
20260502100552 31 169 0.0 1.0 0.00 0.00 0.00 79 1018.8
20260502100130 31 0 0.0 1.0 0.00 0.00 0.00 78 1018.8
20260502091051 32 0 0.0 1.0 0.00 0.00 0.00 75 1018.9
20260502090557 33 0 0.0 2.0 0.00 0.00 0.00 74 1018.8
20260502090112 33 240 0.0 2.0 0.00 0.00 0.00 73 1018.8
20260502080109 32 191 0.0 1.0 0.00 0.00 0.00 75 1018.7
20260502071051 32 193 0.0 1.0 0.00 0.00 0.00 74 1018.9
20260502070551 32 196 0.0 1.0 0.00 0.00 0.00 74 1018.9
20260502070058 32 203 0.0 1.0 0.00 0.00 0.00 74 1018.9
20260502065555 32 199 0.0 1.0 0.00 0.00 0.00 74 1019.0
20260502065055 32 0 0.0 1.0 0.00 0.00 0.00 74 1019.1
20260502064606 33 0 0.0 1.0 0.00 0.00 0.00 74 1019.2
20260502064052 33 163 0.0 1.0 0.00 0.00 0.00 74 1019.2
20260502063552 33 195 0.0 1.0 0.00 0.00 0.00 74 1019.2
20260502063106 33 206 0.0 1.0 0.00 0.00 0.00 73 1019.3
20260502062555 33 207 0.0 1.0 0.00 0.00 0.00 73 1019.3
20260502062052 33 212 0.0 1.0 0.00 0.00 0.00 73 1019.2
20260502061611 33 193 0.0 1.0 0.00 0.00 0.00 73 1019.2
20260502061052 33 205 0.0 1.0 0.00 0.00 0.00 73 1019.2
20260502060552 33 153 0.0 1.0 0.00 0.00 0.00 73 1019.3
20260502060058 33 210 0.0 1.0 0.00 0.00 0.00 73 1019.3
20260502055555 33 195 0.0 1.0 0.00 0.00 0.00 72 1019.1
20260502055052 33 0 0.0 1.0 0.00 0.00 0.00 72 1019.2
20260502054556 33 0 0.0 2.0 0.00 0.00 0.00 72 1019.1
20260502054056 33 0 0.0 2.0 0.00 0.00 0.00 71 1019.2
20260502053551 33 0 0.0 2.0 0.00 0.00 0.00 71 1019.1
20260502053104 33 0 0.0 1.0 0.00 0.00 0.00 71 1019.1
20260502052554 33 197 0.0 1.0 0.00 0.00 0.00 71 1019.0
20260502052052 33 0 0.0 1.0 0.00 0.00 0.00 71 1019.1
20260502051556 33 0 0.0 1.0 0.00 0.00 0.00 72 1019.0
20260502051057 33 224 0.0 1.0 0.00 0.00 0.00 72 1019.1
20260502050553 33 224 0.0 1.0 0.00 0.00 0.00 71 1019.0
20260502050058 34 0 0.0 1.0 0.00 0.00 0.00 70 1018.9
20260502045555 34 0 0.0 0.0 0.00 0.00 0.00 70 1018.9
20260502045053 34 0 0.0 0.0 0.00 0.00 0.00 69 1018.9
20260502044556 34 0 0.0 0.0 0.00 0.00 0.00 69 1019.0
20260502044053 34 0 0.0 0.0 0.00 0.00 0.00 69 1019.0
20260502043554 34 0 0.0 1.0 0.00 0.00 0.00 68 1019.0
20260502043103 35 0 0.0 1.0 0.00 0.00 0.00 68 1018.9
20260502042554 35 224 0.0 1.0 0.00 0.00 0.00 69 1019.0
20260502042056 35 230 0.0 1.0 0.00 0.00 0.00 68 1019.0
20260502041613 35 213 0.0 1.0 0.00 0.00 0.00 67 1019.1
20260502041054 35 0 0.0 1.0 0.00 0.00 0.00 67 1019.1
20260502040553 35 0 0.0 0.0 0.00 0.00 0.00 67 1019.0
20260502040100 35 0 0.0 0.0 0.00 0.00 0.00 67 1019.1
20260502035553 35 0 0.0 1.0 0.00 0.00 0.00 69 1019.1
20260502035053 36 0 0.0 1.0 0.00 0.00 0.00 69 1019.1
20260502034554 36 244 0.0 1.0 0.00 0.00 0.00 67 1019.1
20260502034054 36 0 0.0 2.0 0.00 0.00 0.00 66 1019.0
20260502033554 37 0 0.0 2.0 0.00 0.00 0.00 65 1019.1
20260502033054 36 0 0.0 1.0 0.00 0.00 0.00 64 1019.1
20260502032553 36 0 0.0 1.0 0.00 0.00 0.00 69 1019.1
20260502032053 36 232 0.0 1.0 0.00 0.00 0.00 67 1019.1
20260502031602 37 219 0.0 0.0 0.00 0.00 0.00 69 1019.1
20260502031054 38 0 0.0 0.0 0.00 0.00 0.00 65 1019.2
20260502030553 39 0 0.0 0.0 0.00 0.00 0.00 58 1019.2
20260502025553 39 0 0.0 0.0 0.00 0.00 0.00 56 1019.2
20260502025053 40 0 0.0 0.0 0.00 0.00 0.00 56 1019.2
20260502024604 40 0 0.0 0.0 0.00 0.00 0.00 57 1019.1
20260502024054 40 0 0.0 1.0 0.00 0.00 0.00 58 1019.0
20260502023557 39 0 0.0 1.0 0.00 0.00 0.00 58 1019.2
20260502023100 39 0 0.0 1.0 0.00 0.00 0.00 59 1019.1
20260502022553 40 219 0.0 1.0 0.00 0.00 0.00 60 1019.1
20260502022054 40 0 0.0 1.0 0.00 0.00 0.00 64 1019.0
20260502021605 41 0 0.0 0.0 0.00 0.00 0.00 58 1019.1
20260502021054 41 0 0.0 0.0 0.00 0.00 0.00 63 1019.2
20260502020553 41 0 0.0 0.0 0.00 0.00 0.00 53 1019.0
20260502020056 41 0 0.0 0.0 0.00 0.00 0.00 52 1018.9
20260502015554 42 0 0.0 0.0 0.00 0.00 0.00 53 1018.9
20260502015054 43 0 0.0 0.0 0.00 0.00 0.00 52 1018.8
20260502014557 43 0 0.0 0.0 0.00 0.00 0.00 52 1018.8
20260502014053 44 0 0.0 0.0 0.00 0.00 0.00 53 1018.7
20260502013555 44 0 0.0 0.0 0.00 0.00 0.00 54 1018.8
20260502013054 44 0 0.0 0.0 0.00 0.00 0.00 52 1018.7
20260502012557 45 0 0.0 0.0 0.00 0.00 0.00 48 1018.8
20260502012053 45 0 0.0 0.0 0.00 0.00 0.00 50 1018.7
20260502011555 44 0 0.0 0.0 0.00 0.00 0.00 51 1018.6
20260502011053 44 0 0.0 0.0 0.00 0.00 0.00 48 1018.6
20260502010553 45 0 0.0 0.0 0.00 0.00 0.00 47 1018.5
20260502010108 45 0 0.0 0.0 0.00 0.00 0.00 47 1018.5
20260502005556 46 0 0.0 0.0 0.00 0.00 0.00 46 1018.5
20260502005057 46 0 0.0 1.0 0.00 0.00 0.00 45 1018.5
20260502004602 47 0 0.0 2.0 0.00 0.00 0.00 46 1018.5
20260502004054 47 0 0.0 2.0 0.00 0.00 0.00 44 1018.4
20260502003554 48 357 1.0 4.0 0.00 0.00 0.00 43 1018.4
20260502003104 48 0 0.0 4.0 0.00 0.00 0.00 41 1018.4
20260502002553 48 6 1.0 3.0 0.00 0.00 0.00 42 1018.4
20260502002053 48 0 0.0 3.0 0.00 0.00 0.00 44 1018.4
20260502001556 49 276 1.0 4.0 0.00 0.00 0.00 43 1018.3
20260502001054 49 264 1.0 4.0 0.00 0.00 0.00 40 1018.3
20260502000553 49 0 1.0 5.0 0.00 0.00 0.00 38 1018.3
20260502000055 50 279 1.0 5.0 0.00 0.00 0.00 37 1018.3
20260501235556 50 21 2.0 4.0 0.00 0.00 0.00 39 1018.3
20260501235053 50 327 1.0 5.0 0.00 0.00 0.00 38 1018.3
20260501234600 49 8 1.0 7.0 0.00 0.00 0.00 38 1018.1
20260501234053 49 349 3.0 7.0 0.00 0.00 0.00 37 1018.3
20260501233553 50 349 4.0 7.0 0.00 0.00 0.00 36 1018.2
20260501233058 50 328 2.0 6.0 0.00 0.00 0.00 40 1018.2
20260501232552 50 322 2.0 9.0 0.00 0.00 0.00 38 1018.1
20260501232056 50 330 6.0 9.0 0.00 0.00 0.00 39 1018.1
20260501231601 51 356 3.0 10.0 0.00 0.00 0.00 37 1018.1
20260501231054 50 26 3.0 10.0 0.00 0.00 0.00 37 1018.1
20260501230553 50 345 5.0 10.0 0.00 0.00 0.00 36 1018.2
20260501230100 51 360 2.0 6.0 0.00 0.00 0.00 38 1018.0
20260501225556 50 28 2.0 6.0 0.00 0.00 0.00 37 1018.1
20260501225055 49 20 3.0 7.0 0.00 0.00 0.00 37 1018.1
20260501224554 49 25 3.0 8.0 0.00 0.00 0.00 38 1018.1
20260501224053 49 25 5.0 8.0 0.00 0.00 0.00 37 1018.1
20260501223553 50 4 2.0 5.0 0.00 0.00 0.00 38 1018.3
20260501223103 50 359 2.0 5.0 0.00 0.00 0.00 35 1018.2
20260501222553 51 311 1.0 6.0 0.00 0.00 0.00 37 1018.1
20260501222053 51 252 3.0 11.0 0.00 0.00 0.00 35 1018.2
20260501221556 51 298 4.0 11.0 0.00 0.00 0.00 38 1018.1
20260501221058 52 51 7.0 11.0 0.00 0.00 0.00 32 1018.0
20260501220557 53 41 4.0 10.0 0.00 0.00 0.00 35 1018.0
20260501220059 53 23 4.0 10.0 0.00 0.00 0.00 35 1018.1
20260501215553 53 269 4.0 10.0 0.00 0.00 0.00 36 1018.0
20260501215056 53 37 2.0 12.0 0.00 0.00 0.00 36 1018.1
20260501214600 53 6 2.0 12.0 0.00 0.00 0.00 36 1018.1
20260501214053 52 314 8.0 12.0 0.00 0.00 0.00 33 1018.0
20260501213553 52 11 4.0 10.0 0.00 0.00 0.00 35 1018.0
20260501213059 51 207 2.0 9.0 0.00 0.00 0.00 34 1018.0
20260501212553 51 123 1.0 9.0 0.00 0.00 0.00 35 1018.1
20260501212053 52 297 3.0 9.0 0.00 0.00 0.00 34 1018.0
20260501211611 53 342 4.0 19.0 0.00 0.00 0.00 37 1018.0
20260501211053 53 10 5.0 19.0 0.00 0.00 0.00 37 1018.0
20260501210553 52 16 3.0 10.0 0.00 0.00 0.00 35 1018.0
20260501210055 52 309 3.0 7.0 0.00 0.00 0.00 35 1018.1
20260501205553 51 319 2.0 12.0 0.00 0.00 0.00 35 1018.1
20260501205053 51 326 4.0 12.0 0.00 0.00 0.00 38 1018.1
20260501204633 51 25 7.0 12.0 0.00 0.00 0.00 38 1018.0
20260501204052 52 233 4.0 12.0 0.00 0.00 0.00 39 1018.0
20260501203553 52 360 2.0 7.0 0.00 0.00 0.00 39 1018.3
20260501203058 52 269 2.0 13.0 0.00 0.00 0.00 36 1018.3
20260501202553 51 212 2.0 13.0 0.00 0.00 0.00 39 1018.3
20260501202057 50 353 8.0 11.0 0.00 0.00 0.00 35 1018.3
20260501201556 51 37 5.0 11.0 0.00 0.00 0.00 36 1018.3
20260501201055 52 298 5.0 11.0 0.00 0.00 0.00 39 1018.3
20260501200556 51 14 2.0 12.0 0.00 0.00 0.00 38 1018.3
20260501200057 51 1 4.0 12.0 0.00 0.00 0.00 36 1018.3
20260501195555 52 26 4.0 12.0 0.00 0.00 0.00 37 1018.3
20260501195053 52 2 3.0 12.0 0.00 0.00 0.00 39 1018.3
20260501194601 52 345 7.0 12.0 0.00 0.00 0.00 38 1018.4
20260501194053 52 290 3.0 12.0 0.00 0.00 0.00 43 1018.3
20260501193553 52 35 5.0 9.0 0.00 0.00 0.00 37 1018.4
20260501193055 51 36 1.0 12.0 0.00 0.00 0.00 42 1018.3
20260501192557 51 46 3.0 12.0 0.00 0.00 0.00 34 1018.3
20260501192053 50 345 7.0 12.0 0.00 0.00 0.00 37 1018.4
20260501191555 51 8 3.0 18.0 0.00 0.00 0.00 40 1018.4
20260501191053 51 258 3.0 18.0 0.00 0.00 0.00 34 1018.4
20260501190553 51 311 7.0 18.0 0.00 0.00 0.00 39 1018.3
20260501190100 50 14 4.0 15.0 0.00 0.00 0.00 38 1018.4
20260501185552 49 35 4.0 15.0 0.00 0.00 0.00 39 1018.3
20260501185055 49 10 8.0 13.0 0.00 0.00 0.00 38 1018.5
20260501184554 50 30 8.0 11.0 0.00 0.00 0.00 38 1018.4
20260501184056 50 303 2.0 12.0 0.00 0.00 0.00 42 1018.5
20260501183557 50 282 4.0 12.0 0.00 0.00 0.00 39 1018.5
20260501183059 50 342 1.0 6.0 0.00 0.00 0.00 43 1018.4
20260501182553 51 245 3.0 7.0 0.00 0.00 0.00 40 1018.6
20260501182052 49 346 3.0 9.0 0.00 0.00 0.00 43 1018.6
20260501181556 49 326 5.0 13.0 0.00 0.00 0.00 42 1018.6
20260501181055 49 8 6.0 13.0 0.00 0.00 0.00 40 1018.6
20260501180552 50 316 8.0 14.0 0.00 0.00 0.00 44 1018.6
20260501175555 49 290 5.0 12.0 0.00 0.00 0.00 42 1018.7
20260501175055 49 342 6.0 14.0 0.00 0.00 0.00 44 1018.7
20260501174604 48 349 9.0 14.0 0.00 0.00 0.00 44 1018.8
20260501174053 49 27 5.0 14.0 0.00 0.00 0.00 41 1018.7
20260501173553 49 349 9.0 14.0 0.00 0.00 0.00 44 1018.8
20260501173056 48 16 2.0 14.0 0.00 0.00 0.00 46 1018.7
20260501172553 47 278 9.0 15.0 0.00 0.00 0.00 43 1018.7
20260501172054 48 40 8.0 15.0 0.00 0.00 0.00 46 1018.6
20260501171555 48 32 8.0 15.0 0.00 0.00 0.00 46 1018.7
20260501171053 47 6 8.0 15.0 0.00 0.00 0.00 45 1018.6
20260501170553 46 31 8.0 12.0 0.00 0.00 0.00 44 1018.7
20260501170052 47 11 6.0 15.0 0.00 0.00 0.00 46 1018.6
20260501165553 46 18 7.0 15.0 0.00 0.00 0.00 46 1018.6
20260501165054 46 27 5.0 13.0 0.00 0.00 0.00 47 1018.5
20260501164600 46 41 8.0 11.0 0.00 0.00 0.00 46 1018.6
20260501164055 46 157 5.0 13.0 0.00 0.00 0.00 49 1018.6
20260501163555 46 15 7.0 15.0 0.00 0.00 0.00 45 1018.5
20260501163053 46 11 7.0 16.0 0.00 0.00 0.00 48 1018.6
20260501162553 46 39 7.0 16.0 0.00 0.00 0.00 46 1018.6
20260501162052 47 36 10.0 16.0 0.00 0.00 0.00 47 1018.7
20260501161556 46 29 6.0 14.0 0.00 0.00 0.00 47 1018.6
20260501161056 47 34 7.0 14.0 0.00 0.00 0.00 47 1018.7
20260501160553 46 42 11.0 14.0 0.00 0.00 0.00 45 1018.7
20260501160100 45 17 5.0 12.0 0.00 0.00 0.00 48 1018.6
20260501155553 46 38 7.0 18.0 0.00 0.00 0.00 50 1018.7
20260501155056 46 34 6.0 18.0 0.00 0.00 0.00 48 1018.7
20260501154600 45 11 7.0 17.0 0.00 0.00 0.00 52 1018.7
20260501154053 45 39 8.0 15.0 0.00 0.00 0.00 49 1018.7
20260501153553 45 44 9.0 15.0 0.00 0.00 0.00 50 1018.7